TimeCST,TemperatureF,Dew PointF,Humidity,Sea Level PressureIn,VisibilityMPH,Wind Direction,Wind SpeedMPH,Gust SpeedMPH,PrecipitationIn,Events,Conditions,WindDirDegrees,DateUTC
12:53 AM,46.9,37.9,71,30.21,10.0,North,3.5,-,N/A,,Clear,360,2013-01-22 06:53:00
1:53 AM,45.0,36.0,71,30.22,10.0,North,3.5,-,N/A,,Clear,10,2013-01-22 07:53:00
2:53 AM,44.1,35.1,71,30.23,10.0,North,3.5,-,N/A,,Clear,350,2013-01-22 08:53:00
3:53 AM,41.0,34.0,76,30.24,10.0,North,3.5,-,N/A,,Clear,360,2013-01-22 09:53:00
4:53 AM,41.0,33.1,73,30.26,10.0,North,4.6,-,N/A,,Clear,350,2013-01-22 10:53:00
5:53 AM,39.0,30.9,73,30.29,10.0,North,3.5,-,N/A,,Clear,360,2013-01-22 11:53:00
6:53 AM,37.9,30.0,73,30.32,10.0,North,-9999.0,-,N/A,,Clear,0,2013-01-22 12:53:00
7:53 AM,41.0,28.0,60,30.34,10.0,North,8.1,-,N/A,,Clear,10,2013-01-22 13:53:00
8:53 AM,45.0,27.0,49,30.37,10.0,Variable,5.8,-,N/A,,Clear,0,2013-01-22 14:53:00
9:53 AM,50.0,24.1,36,30.38,10.0,NNE,8.1,-,N/A,,Clear,20,2013-01-22 15:53:00
10:53 AM,53.1,21.0,29,30.36,10.0,North,9.2,-,N/A,,Clear,10,2013-01-22 16:53:00
11:53 AM,57.0,25.0,29,30.34,10.0,Variable,5.8,-,N/A,,Clear,0,2013-01-22 17:53:00
12:53 PM,57.9,24.1,27,30.31,10.0,North,3.5,-,N/A,,Clear,360,2013-01-22 18:53:00
1:53 PM,57.0,26.1,30,30.30,10.0,NNW,5.8,-,N/A,,Overcast,330,2013-01-22 19:53:00
2:53 PM,59.0,27.0,29,30.29,10.0,North,4.6,-,N/A,,Partly Cloudy,360,2013-01-22 20:53:00
3:53 PM,60.1,28.9,31,30.31,10.0,North,5.8,-,N/A,,Clear,10,2013-01-22 21:53:00
4:53 PM,55.0,30.9,40,30.31,10.0,NNE,3.5,-,N/A,,Clear,20,2013-01-22 22:53:00
5:53 PM,44.1,36.0,73,30.32,10.0,Calm,Calm,-,N/A,,Clear,0,2013-01-22 23:53:00
6:53 PM,41.0,36.0,82,30.32,10.0,Calm,Calm,-,N/A,,Clear,0,2013-01-23 00:53:00
7:53 PM,39.9,35.1,83,30.34,10.0,Calm,Calm,-,N/A,,Clear,0,2013-01-23 01:53:00
8:53 PM,36.0,33.1,89,30.35,10.0,Calm,Calm,-,N/A,,Clear,0,2013-01-23 02:53:00
9:53 PM,35.1,33.1,92,30.37,10.0,Calm,Calm,-,N/A,,Clear,0,2013-01-23 03:53:00
10:53 PM,34.0,32.0,92,30.37,10.0,Calm,Calm,-,N/A,,Clear,0,2013-01-23 04:53:00
11:53 PM,33.1,30.9,92,30.37,10.0,Calm,Calm,-,N/A,,Clear,0,2013-01-23 05:53:00